Weather History for KCIN - November, 2012

Change the Weather History Date:

Monday, November 12, 2012

  Actual Average Record
Temperature  
Mean Temperature 27 °F -  
Max Temperature 35 °F 44 °F 71 °F (1999)
Min Temperature 17 °F 25 °F -4 °F (1968)
Degree Days  
Heating Degree Days 38    
Moisture  
Dew Point 15 °F    
Average Humidity 66    
Maximum Humidity 86    
Minimum Humidity 41    
Precipitation  
Precipitation 0.00 in - - ()
Sea Level Pressure  
Sea Level Pressure 30.21 in    
Wind  
Wind Speed 14 mph (West)    
Max Wind Speed 28 mph    
Max Gust Speed 33 mph    
Visibility 10 miles    
Events      
Averages and records for this station are not official NWS values.
T = Trace of Precipitation, MM = Missing Value Source: NWS Daily Summary

Daily Weather History Graph

Daily Weather History Graph

Search for Another Location

Airport or City:

Trip Planner

Search our weather history database for the weather conditions in past years. The results will help you decide how hot, cold, wet, or windy it might be!

Date:

Astronomy

Nov. 12, 2012 Rise Set
Actual Time 7:06 AM CST 5:00 PM CST
Civil Twilight 6:36 AM CST 5:30 PM CST
Nautical Twilight 6:02 AM CST 6:03 PM CST
Astronomical Twilight 5:29 AM CST 6:36 PM CST
Moon 5:31 AM CST (11/12) 4:06 PM CST (11/12)
Length of Visible Light 10h 53m
Length of Day
9h 54m
Waning Crescent, 2% of the Moon is Illuminated
Nov 12
Waning Crescent
Nov 13
New
Nov 20
First Quarter
Nov 28
Full
Dec 6
Last Quarter

Hourly Weather History & Observations

Time (CST) Temp. Windchill Dew Point Humidity Pressure Visibility Wind Dir Wind Speed Gust Speed Precip Events Conditions
12:15 AM 21.2 °F 10.1 °F 15.8 °F 80% 30.10 in 10.0 mi West 10.4 mph - N/A   Clear
12:35 AM 21.2 °F 11.7 °F 14.0 °F 74% 30.10 in 10.0 mi West 8.1 mph - N/A   Clear
12:55 AM 21.2 °F 10.1 °F 14.0 °F 74% 30.10 in 10.0 mi WNW 10.4 mph - N/A   Clear
1:15 AM 21.2 °F 9.5 °F 14.0 °F 74% 30.10 in 10.0 mi WNW 11.5 mph - N/A   Clear
1:35 AM 21.2 °F 9.5 °F 14.0 °F 74% 30.10 in 10.0 mi WNW 11.5 mph 17.3 mph N/A   Clear
1:55 AM 21.2 °F 9.5 °F 14.0 °F 74% 30.11 in 10.0 mi West 11.5 mph - N/A   Clear
2:15 AM 19.4 °F 7.9 °F 14.0 °F 80% 30.11 in 10.0 mi West 10.4 mph - N/A   Clear
2:35 AM 21.2 °F 8.3 °F 14.0 °F 74% 30.11 in 10.0 mi West 13.8 mph - N/A   Clear
2:55 AM 21.2 °F 8.9 °F 14.0 °F 74% 30.11 in 10.0 mi West 12.7 mph - N/A   Clear
3:15 AM 21.2 °F 8.3 °F 14.0 °F 74% 30.11 in 10.0 mi West 13.8 mph - N/A   Clear
3:35 AM 21.2 °F 8.9 °F 14.0 °F 74% 30.11 in 10.0 mi West 12.7 mph - N/A   Clear
3:55 AM 21.2 °F 10.1 °F 14.0 °F 74% 30.11 in 10.0 mi West 10.4 mph - N/A   Clear
4:15 AM 21.2 °F 8.9 °F 14.0 °F 74% 30.11 in 10.0 mi West 12.7 mph - N/A   Clear
4:35 AM 21.2 °F 7.8 °F 14.0 °F 74% 30.11 in 10.0 mi West 15.0 mph - N/A   Clear
4:55 AM 21.2 °F 7.8 °F 14.0 °F 74% 30.11 in 10.0 mi WSW 15.0 mph - N/A   Clear
5:15 AM 21.2 °F 7.8 °F 14.0 °F 74% 30.12 in 10.0 mi West 15.0 mph - N/A   Clear
5:35 AM 21.2 °F 8.9 °F 14.0 °F 74% 30.12 in 10.0 mi WSW 12.7 mph - N/A   Clear
5:55 AM 21.2 °F 9.5 °F 14.0 °F 74% 30.12 in 10.0 mi WSW 11.5 mph - N/A   Clear
6:15 AM 21.2 °F 7.8 °F 14.0 °F 74% 30.12 in 10.0 mi West 15.0 mph - N/A   Clear
6:55 AM 21.2 °F 8.3 °F 14.0 °F 74% 30.13 in 10.0 mi West 13.8 mph 19.6 mph N/A   Clear
7:15 AM 21.2 °F 8.3 °F 14.0 °F 74% 30.14 in 10.0 mi West 13.8 mph 20.7 mph N/A   Clear
7:35 AM 21.2 °F 7.8 °F 14.0 °F 74% 30.14 in - West 15.0 mph - N/A   Clear
7:55 AM 23.0 °F 10.1 °F 14.0 °F 68% 30.15 in 10.0 mi West 15.0 mph 23.0 mph N/A   Clear
8:15 AM 23.0 °F 10.1 °F 15.8 °F 74% 30.15 in 10.0 mi West 15.0 mph - N/A   Clear
8:35 AM 24.8 °F 11.5 °F 15.8 °F 69% 30.16 in 10.0 mi West 17.3 mph - N/A   Clear
8:55 AM 26.6 °F 12.0 °F 17.6 °F 69% 30.16 in 10.0 mi West 23.0 mph - N/A   Clear
9:15 AM 26.6 °F 11.7 °F 17.6 °F 69% 30.16 in 10.0 mi West 24.2 mph 31.1 mph N/A   Clear
9:35 AM 26.6 °F 11.4 °F 17.6 °F 69% 30.17 in 10.0 mi WNW 25.3 mph - N/A   Clear
9:55 AM 28.4 °F 13.5 °F 17.6 °F 64% 30.17 in 10.0 mi West 26.5 mph - N/A   Clear
10:15 AM 28.4 °F 14.7 °F 17.6 °F 64% 30.18 in 10.0 mi West 21.9 mph 31.1 mph N/A   Clear
10:35 AM 28.4 °F 15.1 °F 17.6 °F 64% 30.18 in 10.0 mi WNW 20.7 mph 28.8 mph N/A   Clear
10:55 AM 30.2 °F 17.1 °F 17.6 °F 60% 30.19 in 10.0 mi West 21.9 mph 28.8 mph N/A   Clear
11:15 AM 32.0 °F 18.9 °F 19.4 °F 60% 30.20 in 10.0 mi West 24.2 mph - N/A   Partly Cloudy
11:35 AM 32.0 °F 18.9 °F 17.6 °F 55% 30.20 in 10.0 mi West 24.2 mph 31.1 mph N/A   Partly Cloudy
11:55 AM 32.0 °F 18.9 °F 17.6 °F 55% 30.19 in 10.0 mi West 24.2 mph - N/A   Clear
12:15 PM 32.0 °F 18.9 °F 17.6 °F 55% 30.19 in 10.0 mi West 24.2 mph 29.9 mph N/A   Clear
12:35 PM 33.8 °F 20.8 °F 17.6 °F 52% 30.19 in 10.0 mi WNW 26.5 mph - N/A   Clear
12:55 PM 33.8 °F 21.9 °F 17.6 °F 52% 30.20 in 10.0 mi WNW 21.9 mph 31.1 mph N/A   Clear
1:15 PM 33.8 °F 20.8 °F 15.8 °F 48% 30.20 in 10.0 mi WNW 26.5 mph 32.2 mph N/A   Clear
1:35 PM 33.8 °F 21.6 °F 14.0 °F 44% 30.20 in 10.0 mi WNW 23.0 mph 28.8 mph N/A   Clear
1:55 PM 35.6 °F 23.0 °F 14.0 °F 41% 30.20 in 10.0 mi WNW 27.6 mph - N/A   Clear
2:15 PM 35.6 °F 23.7 °F 14.0 °F 41% 30.20 in 10.0 mi WNW 24.2 mph 33.4 mph N/A   Clear
2:35 PM 35.6 °F 23.7 °F 14.0 °F 41% 30.21 in 10.0 mi West 24.2 mph - N/A   Clear
2:55 PM 35.6 °F 24.0 °F 14.0 °F 41% 30.22 in 10.0 mi WNW 23.0 mph 28.8 mph N/A   Clear
3:15 PM 33.8 °F 22.2 °F 12.2 °F 41% 30.23 in 10.0 mi West 20.7 mph 31.1 mph N/A   Clear
3:35 PM 35.6 °F 25.2 °F 14.0 °F 41% 30.24 in 10.0 mi West 18.4 mph 26.5 mph N/A   Clear
3:55 PM 33.8 °F 21.9 °F 12.2 °F 41% 30.24 in 10.0 mi WNW 21.9 mph - N/A   Clear
4:35 PM 33.8 °F 23.5 °F 12.2 °F 41% 30.26 in 10.0 mi WNW 16.1 mph 25.3 mph N/A   Clear
4:55 PM 32.0 °F 23.0 °F 14.0 °F 48% 30.26 in 10.0 mi West 11.5 mph - N/A   Clear
5:15 PM 30.2 °F 21.9 °F 15.8 °F 55% 30.27 in 10.0 mi West 9.2 mph - N/A   Clear
5:35 PM 28.4 °F 18.5 °F 15.8 °F 59% 30.27 in 10.0 mi West 11.5 mph - N/A   Clear
5:55 PM 28.4 °F 19.7 °F 15.8 °F 59% 30.28 in 10.0 mi West 9.2 mph - N/A   Clear
6:15 PM 26.6 °F 16.8 °F 17.6 °F 69% 30.29 in 10.0 mi West 10.4 mph - N/A   Clear
6:35 PM 26.6 °F 16.8 °F 17.6 °F 69% 30.30 in 10.0 mi West 10.4 mph - N/A   Clear
6:55 PM 26.6 °F 17.5 °F 17.6 °F 69% 30.31 in 10.0 mi West 9.2 mph - N/A   Clear
7:15 PM 24.8 °F 15.3 °F 17.6 °F 74% 30.31 in 10.0 mi West 9.2 mph - N/A   Clear
7:35 PM 24.8 °F 16.1 °F 17.6 °F 74% 30.31 in 10.0 mi West 8.1 mph - N/A   Clear
7:55 PM 24.8 °F 15.3 °F 15.8 °F 69% 30.31 in 10.0 mi West 9.2 mph - N/A   Clear
8:35 PM 23.0 °F 12.4 °F 17.6 °F 80% 30.33 in 10.0 mi West 10.4 mph - N/A   Clear
8:55 PM 23.0 °F 12.4 °F 17.6 °F 80% 30.34 in 10.0 mi West 10.4 mph - N/A   Clear
9:15 PM 23.0 °F 13.9 °F 15.8 °F 74% 30.33 in 10.0 mi West 8.1 mph - N/A   Clear
9:35 PM 23.0 °F 15.8 °F 15.8 °F 74% 30.34 in 10.0 mi West 5.8 mph - N/A   Clear
9:55 PM 21.2 °F 16.4 °F 15.8 °F 80% 30.34 in 10.0 mi West 3.5 mph - N/A   Clear
10:15 PM 23.0 °F - 15.8 °F 74% 30.34 in 10.0 mi Calm Calm - N/A   Clear
10:35 PM 19.4 °F - 14.0 °F 80% 30.35 in 10.0 mi Calm Calm - N/A   Clear
10:55 PM 21.2 °F - 15.8 °F 80% 30.35 in 10.0 mi Calm Calm - N/A   Clear
11:15 PM 21.2 °F 13.6 °F 14.0 °F 74% 30.36 in 10.0 mi West 5.8 mph - N/A   Clear
11:35 PM 19.4 °F 12.8 °F 14.0 °F 80% 30.35 in 10.0 mi WNW 4.6 mph - N/A   Clear
11:55 PM 17.6 °F - 14.0 °F 86% 30.36 in 10.0 mi Calm Calm - N/A   Clear